Denver, CO

12:44 PM MDT on May 25, 2017 (GMT -0600)
Denver International

Weather History for KDEN - December, 2013

Change the Weather History Date:

Thursday, December 19, 2013

  Actual Average Record
Temperature  
Mean Temperature 29 °F 29 °F  
Max Temperature 44 °F 42 °F 67 °F (1917)
Min Temperature 14 °F 17 °F -10 °F (1989)
Degree Days  
Heating Degree Days 36 36  
Month to date heating degree days 730 663  
Since 1 July heating degree days 2053 2045  
Cooling Degree Days 0 0  
Month to date cooling degree days 0 0  
Year to date cooling degree days 999 769  
Moisture  
Dew Point 17 °F    
Average Humidity 59    
Maximum Humidity 92    
Minimum Humidity 25    
Precipitation  
Precipitation T in 0.01 in 0.75 in (1913)
Month to date precipitation 0.14 0.22  
Year to date precipitation 17.49 14.17  
Snow  
Snow T in - - ()
Month to date snowfall 3.1  
Since 1 July snowfall 6.5  
Snow Depth 0.00 in    
Sea Level Pressure  
Sea Level Pressure 29.70 in    
Wind  
Wind Speed 10 mph (NNE)    
Max Wind Speed 25 mph    
Max Gust Speed 32 mph    
Visibility 7 miles    
Events Snow    
T = Trace of Precipitation, MM = Missing Value Source: NWS Daily Summary

Daily Weather History Graph

Daily Weather History Graph

Search for Another Location

Airport or City:

Trip Planner

Search our weather history database for the weather conditions in past years. The results will help you decide how hot, cold, wet, or windy it might be!

Date:

Astronomy

Dec. 19, 2013 Rise Set
Actual Time 7:15 AM MST 4:36 PM MST
Civil Twilight 6:45 AM MST 5:06 PM MST
Nautical Twilight 6:11 AM MST 5:40 PM MST
Astronomical Twilight 5:38 AM MST 6:13 PM MST
Moon 7:04 PM MST (12/19) 8:36 AM MST (12/19)
Length of Visible Light 10h 21m
Length of Day
9h 20m
Waning Gibbous, 95% of the Moon is Illuminated
Dec 19
Waning Gibbous
Dec 25
Last Quarter
Jan 1
New
Jan 7
First Quarter
Jan 15
Full

Hourly Weather History & Observations

Time (MST) Temp. Windchill Dew Point Humidity Pressure Visibility Wind Dir Wind Speed Gust Speed Precip Events Conditions
12:53 AM 39.0 °F 32.8 °F 15.1 °F 38% 29.56 in 10.0 mi SSW 9.2 mph - N/A   Mostly Cloudy
1:53 AM 42.1 °F 38.4 °F 15.1 °F 34% 29.55 in 10.0 mi South 5.8 mph - N/A   Mostly Cloudy
2:53 AM 33.1 °F 24.4 °F 17.1 °F 52% 29.57 in 10.0 mi South 11.5 mph - N/A   Partly Cloudy
3:53 AM 33.1 °F 24.9 °F 15.1 °F 48% 29.56 in 10.0 mi South 10.4 mph - N/A   Mostly Cloudy
4:53 AM 37.0 °F 30.4 °F 14.0 °F 39% 29.59 in 10.0 mi North 9.2 mph - N/A   Mostly Cloudy
5:53 AM 35.1 °F - 16.0 °F 46% 29.55 in 10.0 mi Calm Calm - N/A   Overcast
6:53 AM 30.0 °F 21.1 °F 17.1 °F 59% 29.57 in 10.0 mi South 10.4 mph - N/A   Overcast
7:53 AM 33.1 °F 23.9 °F 18.0 °F 54% 29.58 in 10.0 mi West 12.7 mph - N/A   Mostly Cloudy
8:53 AM 37.0 °F - 19.9 °F 50% 29.54 in 10.0 mi Calm Calm - N/A   Mostly Cloudy
9:53 AM 39.0 °F 34.0 °F 21.0 °F 49% 29.54 in 10.0 mi WNW 6.9 mph - N/A   Mostly Cloudy
10:53 AM 37.0 °F 30.4 °F 21.0 °F 52% 29.53 in 10.0 mi NW 9.2 mph - N/A   Mostly Cloudy
11:53 AM 39.9 °F 35.1 °F 21.0 °F 47% 29.50 in 10.0 mi NNW 6.9 mph - N/A   Mostly Cloudy
12:53 PM 43.0 °F 38.2 °F 21.0 °F 42% 29.50 in 10.0 mi North 8.1 mph - N/A   Mostly Cloudy
1:53 PM 44.1 °F 39.0 °F 21.0 °F 40% 29.47 in 10.0 mi North 9.2 mph - N/A   Mostly Cloudy
2:53 PM 44.1 °F 40.1 °F 21.0 °F 40% 29.52 in 10.0 mi NNE 6.9 mph - N/A   Mostly Cloudy
3:53 PM 42.1 °F 34.2 °F 23.0 °F 47% 29.59 in 10.0 mi NNE 16.1 mph - N/A   Mostly Cloudy
4:53 PM 34.0 °F 22.1 °F 21.9 °F 61% 29.69 in 10.0 mi NNE 21.9 mph 32.2 mph N/A   Mostly Cloudy
5:53 PM 28.9 °F 17.7 °F 21.9 °F 75% 29.79 in 10.0 mi NE 15.0 mph - N/A   Mostly Cloudy
6:32 PM 28.9 °F 17.7 °F 21.9 °F 75% 29.80 in 10.0 mi NE 15.0 mph 24.2 mph N/A   Mostly Cloudy
6:53 PM 23.0 °F 8.3 °F 18.0 °F 81% 29.88 in 10.0 mi North 19.6 mph 27.6 mph N/A   Mostly Cloudy
7:13 PM 21.0 °F 7.1 °F 17.1 °F 85% 29.81 in 10.0 mi NNE 16.1 mph - N/A   Overcast
7:45 PM 19.9 °F 4.8 °F 17.1 °F 89% 29.82 in 2.0 mi NNE 18.4 mph - N/A   Overcast
7:53 PM 19.9 °F 6.2 °F 17.1 °F 89% 29.89 in 2.0 mi NE 15.0 mph - N/A   Overcast
8:30 PM 18.0 °F 3.1 °F 16.0 °F 92% 29.92 in 0.5 mi NNE 16.1 mph - N/A   Overcast
8:53 PM 17.1 °F 2.0 °F 15.1 °F 92% 29.91 in 1.5 mi NNE 16.1 mph - N/A   Overcast
9:07 PM 16.0 °F 2.9 °F 14.0 °F 92% 29.85 in 1.5 mi NNE 11.5 mph - 0.00 in Snow Light Snow
9:15 PM 16.0 °F 2.9 °F 14.0 °F 92% 29.85 in 3.0 mi NNE 11.5 mph - 0.00 in Snow Light Snow
9:29 PM 15.1 °F 1.8 °F 12.9 °F 91% 29.85 in 3.0 mi NNE 11.5 mph - 0.00 in Snow Light Snow
9:46 PM 15.1 °F 2.5 °F 12.0 °F 88% 29.85 in 5.0 mi NNE 10.4 mph - 0.00 in   Overcast
9:53 PM 15.1 °F 3.3 °F 12.0 °F 88% 29.91 in 6.0 mi NNE 9.2 mph - 0.00 in   Overcast
10:11 PM 15.1 °F 4.2 °F 12.0 °F 88% 29.85 in 5.0 mi NNE 8.1 mph - 0.00 in   Light Freezing Drizzle
10:53 PM 14.0 °F 2.9 °F 12.0 °F 92% 29.92 in 3.0 mi NE 8.1 mph - 0.00 in   Light Freezing Drizzle
11:15 PM 14.0 °F 3.9 °F 12.0 °F 92% 29.85 in 2.0 mi NNE 6.9 mph - 0.00 in Snow Light Freezing Drizzle
11:29 PM 15.1 °F 6.4 °F 12.0 °F 88% 29.84 in 2.0 mi NE 5.8 mph - 0.00 in Snow Light Snow
11:53 PM 15.1 °F 6.4 °F 12.0 °F 88% 29.90 in 3.0 mi NE 5.8 mph - 0.00 in Snow Light Snow